x

Ilm3 - 27 Miles Se Of Wrightsville Beach, Nc (41037) Weather Station

2:00 - Thu 18th Sep 2014 All times are EDT. -4 hours from GMT.

  • Wind
    18mph, 20mph gusts
  • Sea Temp 82°f
  • Air Temp 74°f
  • Sea Pressure 1014.2mb
  • Ilm3 - 27 Miles Se Of Wrightsville Beach, Nc
  • Ilm3 - 27 Miles Se Of Wrightsville Beach, Nc

More Historic Weather Station data

Upgrade to MSW Pro to gain access to the past 30 days of data for over 8000 Wavebouys and Weather Stations around the globe.

Join Pro

Comparision Forecast

View Surf forecast
   
jeu. 09/18 2:00 18 20 mph 1014.2mb 82f 74f
1:00 18 20 mph 1014.7mb 82f 75f
12:00 18 20 mph 1014.2mb 82f 75f
11:00 18 20 mph 1014.2mb 82f 75f
10:00 18 20 mph 1013.9mb 82f 75f
9:00 16 18 mph 1013.3mb 82f 75f
8:00 16 18 mph 1013.1mb 82f 74f
7:00 13 16 mph 1012.5mb 82f 74f
6:00 16 18 mph 1012mb 82f 74f
5:00 13 18 mph 1011.6mb 82f 75f
4:00 16 18 mph 1011.4mb 82f 74f
3:00 13 16 mph 1011.4mb 82f 74f
2:00 16 18 mph 1011.8mb 82f 74f
1:00 13 16 mph 1012mb 82f 75f
12:00 16 18 mph 1012.4mb 82f 74f
mer. 09/17 11:00 16 18 mph 1012.3mb 82f 75f
10:00 16 20 mph 1012.3mb 82f 75f
9:00 13 16 mph 1011.9mb 82f 75f
8:00 16 18 mph 1011.5mb 82f 75f
7:00 11 13 mph 1011.5mb 82f 75f
6:00 11 13 mph 1011.1mb 83f 75f
5:00 13 16 mph 1011.2mb 83f 75f
4:00 4 9 mph 1010.7mb 83f 76f
3:00 13
mph
1011.1mb 82f 76f
2:00 11 13 mph 1011.8mb 82f 76f
1:00 11 13 mph 1012.4mb 81f 76f
12:00 11 13 mph 1013mb 81f 76f
11:00 9 11 mph 1013.1mb 81f 75f
10:00 13
mph
1013mb 81f 74f
9:00 13 16 mph 1012.9mb 82f 73f
8:00 20 25 mph 1013mb 82f 72f
7:00 18 20 mph 1012.6mb 82f 73f
6:00 18 22 mph 1012.1mb 82f 72f
5:00 11
mph
1012.1mb 82f 73f
4:00 4 7 mph 1011.6mb 82f 75f
3:00 20 22 mph 1012.5mb 82f 72f
2:00 7 9 mph 1013.6mb 82f 76f
1:00 2
mph
1013.8mb 82f 76f
12:00 7
mph
1014.1mb 82f 76f
mar. 09/16 11:00 9 11 mph 1013.7mb 82f 76f
10:00 9 11 mph 1014.3mb 82f 76f
9:00 9
mph
1014.6mb 82f 76f
8:00 7 9 mph 1014.1mb 82f 76f
7:00 7 9 mph 1014mb 82f 76f
6:00 4 7 mph 1014.3mb 82f 76f
5:00 7 9 mph 1014.2mb 82f 76f
4:00 9
mph
1014.5mb 82f 75f
3:00 11 13 mph 1014.9mb 82f 75f
2:00 11 13 mph 1015.4mb 82f 75f
1:00 11 13 mph 1016.1mb 82f 74f
12:00 11 13 mph 1016.6mb 82f 74f
11:00 7 9 mph 1017.1mb 82f 73f
10:00 9 11 mph 1017.1mb 81f 73f
9:00 13 18 mph 1016.8mb 82f 76f
8:00 11 13 mph 1016.7mb 82f 76f
7:00 13 16 mph 1016.7mb 82f 76f
6:00 7 9 mph 1017.1mb 82f 76f
5:00 7
mph
1016.9mb 82f 75f
4:00 7
mph
1017.1mb 82f 74f
3:00 4
mph
1017.7mb 82f 74f
2:00 7
mph
1018.2mb 82f 74f
1:00 4 7 mph 1019mb 82f 74f
12:00 4
mph
1019.7mb 82f 74f
lun. 09/15 11:00 7 9 mph 1020mb 82f 74f
10:00 7
mph
1020mb 82f 74f
9:00 4 7 mph 1020mb 82f 74f
8:00 7 9 mph 1019.7mb 82f 74f
7:00 7 9 mph 1019.6mb 82f 74f
6:00 11 13 mph 1019.7mb 82f 74f
5:00 7 9 mph 1020.1mb 82f 74f
4:00 11 13 mph 1020.5mb 82f 74f
3:00 11 16 mph 1020.9mb 82f 73f
2:00 13 16 mph 1021.5mb 82f 73f
1:00 13 18 mph 1021.7mb 82f 73f
12:00 11 16 mph 1022mb 82f 73f
11:00 16 18 mph 1022.1mb 82f 73f
10:00 16 18 mph 1021.9mb 82f 73f
9:00 11 13 mph 1022.3mb 82f 73f
8:00 13 16 mph 1022.1mb 82f 73f
7:00 13 16 mph 1021.9mb 82f 73f
6:00 13 16 mph 1021.4mb 82f 73f
5:00 13 16 mph 1021mb 82f 73f
4:00 13 18 mph 1020.9mb 83f 73f
3:00 11 13 mph 1021mb 83f 73f
2:00 11 13 mph 1021.2mb 83f 73f
1:00 16 18 mph 1021.1mb 83f 73f
12:00 11 13 mph 1021.7mb 83f 73f
dim. 09/14 11:00 13 18 mph 1021.5mb 83f 73f
10:00 13 18 mph 1021.6mb 83f 73f
9:00 18 22 mph 1021.4mb 83f 73f
8:00 18 20 mph 1021.2mb 83f 74f